FW0689 Weather Reports


time (UTC)temp
F
wind
direction
speed
knots
gust
knots
rain 1hr
in
rain 24hr
in
rain mn
in
humidity
%
barometer
mb
20260507033918 38 292 0.0 0.0 0.00 0.00 0.00 43 1017.8
20260507032920 38 292 0.0 0.0 0.00 0.00 0.00 43 1017.8
20260507031922 38 292 0.0 0.0 0.00 0.00 0.00 43 1017.7
20260507030919 38 292 0.0 0.0 0.00 0.00 0.00 43 1017.7
20260507025921 38 292 0.0 0.0 0.00 0.00 0.00 43 1017.6
20260507024921 38 315 0.0 0.0 0.00 0.00 0.00 43 1017.7
20260507021920 39 315 0.0 0.0 0.00 0.00 0.00 43 1017.4
20260507021019 39 315 0.0 0.0 0.00 0.00 0.00 43 1017.5
20260507020021 39 315 0.0 0.0 0.00 0.00 0.00 43 1017.4
20260507012121 41 341 0.0 0.0 0.00 0.00 0.00 42 1017.3
20260507010121 41 335 0.0 0.0 0.00 0.00 0.00 42 1017.2
20260507005219 41 323 0.0 0.0 0.00 0.00 0.00 42 1017.1
20260507004318 41 336 0.0 0.0 0.00 0.00 0.00 42 1017.0
20260507003321 41 329 0.0 0.0 0.00 0.00 0.00 42 1017.0
20260507002320 42 333 0.0 0.0 0.00 0.00 0.00 42 1017.1
20260507001320 42 333 0.0 0.0 0.00 0.00 0.00 42 1017.1
20260507000321 42 336 0.0 0.0 0.00 0.00 0.00 42 1017.1
20260506234320 42 326 0.0 0.0 0.00 0.00 0.00 42 1017.3
20260506233320 43 337 0.0 0.0 0.00 0.00 0.00 41 1017.1
20260506232337 43 316 0.0 0.0 0.00 0.00 0.00 40 1017.1
20260506225320 44 321 0.0 0.0 0.00 0.00 0.00 41 1017.1
20260506224319 44 346 0.0 0.0 0.00 0.00 0.00 41 1017.1
20260506223322 45 339 0.0 0.0 0.00 0.00 0.00 41 1017.0
20260506222420 45 5 0.0 0.0 0.00 0.00 0.00 41 1017.1
20260506221436 45 337 0.0 0.0 0.00 0.00 0.00 41 1017.0
20260506220419 46 342 0.0 0.0 0.00 0.00 0.00 41 1016.9
20260506214431 46 1 0.0 0.0 0.00 0.00 0.00 41 1016.9
20260506211430 47 347 0.0 0.0 0.00 0.00 0.00 41 1016.8
20260506210430 47 358 0.0 0.0 0.00 0.00 0.00 40 1016.7
20260506210331 48 354 0.0 0.0 0.00 0.00 0.00 40 1016.7
20260506205429 48 360 0.0 0.0 0.00 0.00 0.00 39 1016.7
20260506204433 48 2 0.0 0.0 0.00 0.00 0.00 40 1016.7
20260506203530 49 1 0.0 0.0 0.00 0.00 0.00 40 1016.7
20260506202530 49 1 0.0 0.0 0.00 0.00 0.00 40 1016.5
20260506201629 49 336 0.0 0.0 0.00 0.00 0.00 40 1016.5
20260506200629 49 344 0.0 0.0 0.00 0.00 0.00 40 1016.4
20260506195631 49 360 0.0 0.0 0.00 0.00 0.00 40 1016.4
20260506194629 49 360 0.0 0.0 0.00 0.00 0.00 40 1016.2
20260506193630 49 45 0.0 0.0 0.00 0.00 0.00 41 1016.3
20260506192629 49 45 0.0 0.0 0.00 0.00 0.00 41 1016.2
20260506191629 49 45 0.0 0.0 0.00 0.00 0.00 41 1015.9
20260506185631 50 45 0.0 0.0 0.00 0.00 0.00 41 1016.0
20260506184630 50 22 0.0 0.0 0.00 0.00 0.00 41 1015.7
20260506183630 50 22 0.0 0.0 0.00 0.00 0.00 40 1015.7
20260506182729 50 22 0.0 0.0 0.00 0.00 0.00 41 1015.6
20260506181729 50 22 0.0 0.0 0.00 0.00 0.00 41 1015.5
20260506180828 50 65 0.0 0.0 0.00 0.00 0.00 41 1015.2
20260506175828 50 22 0.0 0.0 0.00 0.00 0.00 41 1015.2
20260506174828 50 22 0.0 0.0 0.00 0.00 0.00 41 1015.1
20260506173829 50 28 0.0 0.0 0.00 0.00 0.00 41 1014.9
20260506172928 51 22 0.0 0.0 0.00 0.00 0.00 41 1015.0
20260506171930 51 59 0.0 0.0 0.00 0.00 0.00 41 1014.8
20260506165930 51 54 0.0 0.0 0.00 0.00 0.00 41 1014.8
20260506165029 51 22 0.0 0.0 0.00 0.00 0.00 41 1014.8
20260506164029 51 57 0.0 0.0 0.00 0.00 0.00 41 1014.9
20260506163030 51 62 0.0 0.0 0.00 0.00 0.00 40 1014.8
20260506162128 51 37 0.0 0.0 0.00 0.00 0.00 41 1014.8
20260506161131 51 86 0.0 0.0 0.00 0.00 0.00 41 1014.8
20260506155130 51 68 0.0 0.0 0.00 0.00 0.00 41 1014.9
20260506153128 51 59 0.0 0.0 0.00 0.00 0.00 41 1014.7
20260506151130 50 54 0.0 0.0 0.00 0.00 0.00 41 1014.8
20260506145128 50 66 0.0 0.0 0.00 0.00 0.00 41 1014.6
20260506144130 51 69 0.0 0.0 0.00 0.00 0.00 41 1014.6
20260506143130 51 46 0.0 0.0 0.00 0.00 0.00 41 1014.6
20260506142130 51 64 0.0 0.0 0.00 0.00 0.00 41 1014.6
20260506141229 51 50 0.0 0.0 0.00 0.00 0.00 40 1014.7
20260506135328 50 44 0.0 0.0 0.00 0.00 0.00 41 1014.6
20260506134330 50 29 0.0 0.0 0.00 0.00 0.00 41 1014.6
20260506133329 50 60 0.0 0.0 0.00 0.00 0.00 41 1014.5
20260506132346 50 49 0.0 0.0 0.00 0.00 0.00 41 1014.5
20260506131429 50 35 0.0 0.0 0.00 0.00 0.00 41 1014.5
20260506130528 50 44 0.0 0.0 0.00 0.00 0.00 40 1014.5
20260506125530 50 41 0.0 0.0 0.00 0.00 0.00 40 1014.5
20260506124532 49 11 0.0 0.0 0.00 0.00 0.00 40 1014.4
20260506123530 49 14 0.0 0.0 0.00 0.00 0.00 40 1014.4
20260506122531 49 37 0.0 0.0 0.00 0.00 0.00 40 1014.4
20260506121531 49 19 0.0 0.0 0.00 0.00 0.00 40 1014.3
20260506120629 49 27 0.0 0.0 0.00 0.00 0.00 39 1014.2
20260506115629 49 13 0.0 0.0 0.00 0.00 0.00 40 1014.1
20260506114645 49 15 0.0 0.0 0.00 0.00 0.00 40 1013.9
20260506113731 49 26 0.0 0.0 0.00 0.00 0.00 40 1013.9
20260506112731 49 17 0.0 0.0 0.00 0.00 0.00 40 1013.9
20260506104831 49 26 0.0 0.0 0.00 0.00 0.00 41 1013.8
20260506103830 49 33 0.0 0.0 0.00 0.00 0.00 41 1013.8
20260506102832 49 16 0.0 0.0 0.00 0.00 0.00 41 1013.7
20260506100930 49 23 0.0 0.0 0.00 0.00 0.00 41 1013.6
20260506095931 49 21 0.0 0.0 0.00 0.00 0.00 41 1013.5
20260506094946 49 16 0.0 0.0 0.00 0.00 0.00 41 1013.4
20260506093931 48 32 0.0 0.0 0.00 0.00 0.00 40 1013.4
20260506093831 48 12 0.0 0.0 0.00 0.00 0.00 40 1013.4
20260506092844 48 24 0.0 0.0 0.00 0.00 0.00 40 1013.4
20260506091830 48 10 0.0 0.0 0.00 0.00 0.00 40 1013.4
20260506090828 48 46 0.0 0.0 0.00 0.00 0.00 40 1013.3
20260506085832 48 14 0.0 0.0 0.00 0.00 0.00 40 1013.3
20260506084829 48 21 0.0 0.0 0.00 0.00 0.00 40 1013.0
20260506083831 48 20 0.0 0.0 0.00 0.00 0.00 40 1013.2
20260506080929 48 45 0.0 0.0 0.00 0.00 0.00 40 1013.1
20260506073031 47 27 0.0 0.0 0.00 0.00 0.00 40 1012.9
20260506072129 47 33 0.0 0.0 0.00 0.00 0.00 39 1012.9
20260506071131 47 51 0.0 0.0 0.00 0.00 0.00 40 1012.9
20260506070228 47 37 0.0 0.0 0.00 0.00 0.00 40 1012.9
20260506062329 47 20 0.0 0.0 0.00 0.00 0.00 40 1012.6
20260506061330 47 42 0.0 0.0 0.00 0.00 0.00 40 1012.5
20260506060345 47 10 0.0 0.0 0.00 0.00 0.00 40 1012.3
20260506043631 48 12 0.0 0.0 0.00 0.00 0.00 40 1012.3
20260506042632 48 1 0.0 0.0 0.00 0.00 0.00 40 1012.2
20260506041631 48 2 0.0 0.0 0.00 0.00 0.00 40 1012.2
20260506040629 48 359 0.0 0.0 0.00 0.00 0.00 40 1012.3
20260506035629 48 1 0.0 0.0 0.00 0.00 0.00 40 1012.3
20260506034728 48 4 0.0 0.0 0.00 0.00 0.00 40 1012.3